Torna al catalogo

SCOUT X-4 R/B

AttivoLEO
NORAD 907·ROCKET BODY·🇺🇸 United States

Lanciato Oct 10, 1964 da Vandenberg Space Force Base

Loading…

Prossimi Passaggi (prossime 24 ore)

TLE

AggiornatoSource: Space-Track

Epoca: Sep 14, 2026, 11:05 UTC

1 00907U 64064B   26257.46198823  .00000070  00000-0  55602-4 0  9998
2 00907  79.6887  72.0485 0120885  73.1615 288.2752 13.80956038114964

Traccia SCOUT X-4 R/B in tempo reale con AllMySat

Download on the App Store